Terug naar catalogus

ONEWEB-0450

ActiefCommunicatiePO
NORAD 50504·PAYLOAD·🇬🇧 United Kingdom

Gelanceerd Dec 27, 2021 vanaf Baikonur Cosmodrome

Loading…

Volgende Passages (komende 24 uur)

TLE

VersSource: CelesTrak SupGP

Epoch: Sep 14, 2026, 23:13 UTC

1 50504C 21132AM  26257.96785139  .00001806  00000+0  45872-2 0  2572
2 50504  87.9160 317.6172 0001908  94.2783 344.7807 13.18682007    15

Volg ONEWEB-0450 in realtime met AllMySat

Download on the App Store